• MPC Preparation (Info)

  • MPEC 2006-N02 : 2006 MB14

    The following Minor Planet Electronic Circular may be linked-to from your own Web pages, but must not otherwise be redistributed electronically.

    A form allowing access to any MPEC is at the bottom of this page.


    Read MPEC 2006-N01 Read MPEC 2006-N03


    M.P.E.C. 2006-N02                                Issued 2006 July 1, 12:08 UT
    
         The Minor Planet Electronic Circulars contain information on unusual
             minor planets and routine data on comets.  They are published
       on behalf of Commission 20 of the International Astronomical Union by the
              Minor Planet Center, Smithsonian Astrophysical Observatory,
                              Cambridge, MA 02138, U.S.A.
    
                      Supported in part by the Brinson Foundation
                      Supported in part by the TABASGO Foundation
                 Prepared using the Tamkin Foundation Computer Network
    
                                  MPC@CFA.HARVARD.EDU
              URL http://cfa-www.harvard.edu/iau/mpc.html  ISSN 1523-6714
    
                                       2006 MB14
    
    Observations:
         K06M14B* C2006 06 30.26278 17 41 25.86 +26 12 00.9          18.2   EN002704
         K06M14B  C2006 06 30.27248 17 41 19.42 +26 17 34.3          18.1   EN002704
         K06M14B  C2006 06 30.28217 17 41 13.02 +26 23 03.5          17.8   EN002704
         K06M14B  C2006 06 30.29190 17 41 06.71 +26 28 31.0          18.1   EN002704
         K06M14B  C2006 06 30.30156 17 41 00.54 +26 33 53.0          18.7   EN002704
         K06M14B  C2006 06 30.95512 17 37 47.91 +31 14 25.6          18.2 R EN002176
         K06M14B  C2006 06 30.95551 17 37 47.73 +31 14 33.4          18.3 R EN002176
         K06M14B  C2006 06 30.95591 17 37 47.54 +31 14 41.3          18.3 R EN002176
         K06M14B  C2006 06 30.95631 17 37 47.35 +31 14 49.3          18.4 R EN002176
         K06M14B  C2006 06 30.95671 17 37 47.16 +31 14 57.2          18.5 R EN002176
         K06M14B  C2006 06 30.95958 17 37 45.99 +31 15 54.2          18.2 R EN002176
         K06M14B  C2006 06 30.95997 17 37 45.80 +31 16 02.0          18.2 R EN002176
         K06M14B  C2006 06 30.96037 17 37 45.62 +31 16 09.8          18.3 R EN002176
         K06M14B  C2006 06 30.96077 17 37 45.42 +31 16 17.9          18.3 R EN002176
         K06M14B  C2006 06 30.96117 17 37 45.22 +31 16 25.7          18.4 R EN002176
         K06M14B  C2006 06 30.98981 17 37 28.26 +31 24 35.8                 EN002595
         K06M14B  C2006 06 30.99269 17 37 27.09 +31 25 30.4          18.4   EN002595
         K06M14B  C2006 07 01.00519 17 37 22.12 +31 29 25.1                 EN002595
         K06M14B  C2006 07 01.01767 17 37 19.15 +31 33 21.9          18.5 R EN002143
         K06M14B  C2006 07 01.02095 17 37 17.94 +31 34 22.6          18.6 R EN002143
         K06M14B  C2006 07 01.02405 17 37 16.75 +31 35 19.4          18.7 R EN002143
         K06M14B  C2006 07 01.21875 17 36 48.59 +32 34 34.5          18.7 R EN002734
         K06M14B  C2006 07 01.22027 17 36 47.98 +32 35 00.4          19.2 R EN002734
         K06M14B  C2006 07 01.22180 17 36 47.39 +32 35 25.8          19.4 R EN002734
         K06M14B  C2006 07 01.22333 17 36 46.77 +32 35 51.5          18.9 R EN002734
         K06M14B  C2006 07 01.27166 17 36 34.99 +32 49 55.8                 EN002703
         K06M14B  C2006 07 01.27202 17 36 34.86 +32 49 59.9          18.6 V EN002703
         K06M14B  C2006 07 01.27237 17 36 34.72 +32 50 05.9          18.7 V EN002703
         K06M14B  C2006 07 01.30604 17 36 21.15 +32 58 56.1          18.3 V EN002703
         K06M14B  C2006 07 01.30638 17 36 21.05 +32 58 59.4          18.2 V EN002703
         K06M14B  C2006 07 01.30673 17 36 20.97 +32 59 01.5          18.0 V EN002703
         K06M14B  C2006 07 01.30708 17 36 20.72 +32 59 09.7          18.0 V EN002703
         K06M14B  C2006 07 01.34742 17 36 05.32 +33 09 17.1          18.8 R EN002854
         K06M14B  C2006 07 01.34994 17 36 04.45 +33 09 54.3          18.9 R EN002854
         K06M14B  C2006 07 01.35495 17 36 02.64 +33 11 07.1          18.8 R EN002854
         K06M14B  C2006 07 01.35745 17 36 01.75 +33 11 43.6          18.8 R EN002854
    
    Observer details:
    143 Gnosca.  Observer S. Sposetti.  0.40-m f/4 reflector + CCD.
    176 Observatori Astronomic de Consell.  Observers A. Lopez, R. Pacheco.
        0.41-m f/4 reflector + CCD.
    595 Farra d'Isonzo.  Observers E. Pettarin, G. Lombardi.  Measurer
        M. E. Pettarin.  0.40-m f/4.5 reflector + CCD.
    703 Catalina Sky Survey.  Observer R. A. Kowalski.  Measurers E. C. Beshore,
        E. J. Christensen, G. J. Garradd, A. R. Gibbs, A. D. Grauer, R. E. Hill,
        R. A. Kowalski, S. M. Larson, R. H. McNaught.  0.68-m Schmidt + CCD.
    704 Lincoln Laboratory ETS, New Mexico.  Observers M. Bezpalko, L. Manguso,
        D. Torres, R. Kracke, M. Blythe, H. Love, G. Spitz.  Measurers J. Stuart,
        J. Kommers.  1.0-m f/2.15 reflector + CCD.
    734 Farpoint Observatory.  Observer G. Hug.  Measurer D. Tibbets.  0.7-m
        reflector + CCD.
    854 Sabino Canyon Observatory, Tucson.  Observer J. E. McGaha.  0.36-m f/10.0
        Schmidt-Cassegrain + CCD.
    
    Orbital elements:
    2006 MB14                                                Earth MOID = 0.0046 AU
    Epoch 2006 Mar. 6.0 TT = JDT 2453800.5                  MPC
    M 330.07961              (2000.0)            P               Q
    n   0.93809838     Peri.  268.92375     -0.93843160     +0.09804142
    a   1.0334841      Node   276.64116     +0.04973715     -0.91055213
    e   0.1179319      Incl.   19.48129     -0.34186597     -0.40160017
    P   1.05           H   25.4           G   0.15           U   6
    Residuals in seconds of arc
    060630 704  0.2-  0.4-    060630 176  0.7+  0.1+    060701 734  0.3+  0.2+
    060630 704  0.2-  0.5-    060630 176  0.4+  0.3+    060701 703  0.5-  1.2+
    060630 704  0.5-  0.6-    060630 176  0.2+  0.2+    060701 703  0.3-  0.5-
    060630 704  0.1-  0.1+    060630 595  0.2+  0.2-    060701 703  0.2-  0.1-
    060630 704  0.5+  1.4+    060630 595  0.2+  0.2-    060701 703  0.3-  1.5+
    060630 176  0.2-  0.1+    060701 595  0.3+  0.3-    060701 703  0.1+  0.5-
    060630 176  0.3-  0.1+    060701 143  0.6-  0.2-    060701 703 (0.9+  3.8-)
    060630 176  0.4-  0.1+    060701 143  0.3+  0.1-    060701 703  0.5-  0.9-
    060630 176  0.5-  0.1+    060701 143  0.3+  0.4-    060701 854  0.7-  0.2-
    060630 176  0.6-  0.1+    060701 734  0.0   0.5-    060701 854  0.0   0.1+
    060630 176  0.9+  0.1+    060701 734  0.0   0.0     060701 854  0.2+  0.1-
    060630 176  0.7+  0.2+    060701 734  0.3+  0.1-    060701 854  0.3+  0.1+
    
    Ephemeris:
    2006 MB14                a,e,i = 1.03, 0.12, 19                  q = 0.9116
    Date    TT    R. A. (2000) Decl.     Delta      r     Elong.  Phase     V
    2006 06 24    05 10.12   -55 39.0    0.0266   1.012    80.1    98.4    21.1
    2006 06 25    05 04.78   -58 25.2    0.0206   1.014    83.1    95.8    20.4
    2006 06 26    04 52.68   -63 22.2    0.0147   1.016    88.4    90.8    19.5
    2006 06 27    03 59.96   -74 07.8    0.00914  1.018   100.2    79.3    18.0
    2006 06 28    19 05.29   -64 37.3    0.00486  1.020   138.2    41.6    15.5
    2006 06 29    17 56.97   +00 16.3    0.00615  1.022   155.1    24.8    15.5
    2006 06 30    17 43.37   +23 22.0    0.0112   1.024   131.8    47.7    17.5
    2006 07 01    17 37.63   +31 30.1    0.0170   1.026   123.4    55.8    18.6
    2006 07 02    17 34.50   +35 27.4    0.0229   1.028   119.3    59.6    19.4
    2006 07 03    17 32.55   +37 45.8    0.0289   1.030   116.8    61.8    20.0
    2006 07 04    17 31.25   +39 15.6    0.0349   1.032   115.1    63.2    20.4
    2006 07 05    17 30.33   +40 18.2    0.0409   1.034   113.8    64.1    20.8
    2006 07 06    17 29.68   +41 03.9    0.0469   1.036   112.9    64.7    21.1
    2006 07 07    17 29.19   +41 38.3    0.0530   1.038   112.1    65.2    21.4
    2006 07 08    17 28.84   +42 05.0    0.0590   1.040   111.5    65.5    21.7
    2006 07 09    17 28.59   +42 25.9    0.0650   1.042   110.9    65.7    21.9
    2006 07 10    17 28.41   +42 42.6    0.0710   1.044   110.4    65.9    22.1
    2006 07 11    17 28.30   +42 55.9    0.0770   1.045   110.0    66.0    22.3
    2006 07 12    17 28.24   +43 06.6    0.0830   1.047   109.6    66.1    22.4
    2006 07 13    17 28.22   +43 15.1    0.0890   1.049   109.3    66.2    22.6
    2006 07 14    17 28.23   +43 21.8    0.0949   1.051   108.9    66.2    22.7
    
    Timothy B. Spahr             (C) Copyright 2006 MPC           M.P.E.C. 2006-N02
    

    Read MPEC 2006-N01 Read MPEC 2006-N03


    MPEC number:

    Enter an MPEC number in one of the following forms:

    • 1997-B01 (the full form)
    • J97B01 (the packed version of the full form)
    • B01 (the abbreviated form)